Home   Weather   Hartford   Past weeks
Flag for USA

Past Weather in Hartford, Wisconsin, USA — Yesterday and Last 2 Weeks

Now
54 °F

Overcast.


Feels Like: 53 °F
Forecast: 56 / 35 °F
Wind: 3 mph from Southwest

Location: West Bend Municipal Airport

Current Time: Oct 15, 2019 at 4:42:46 pm

Latest Report: Oct 15, 2019 at 3:35 pm


Visibility: 10 mi

Pressure: 29.66 "Hg

Humidity: 88%

Dew Point: 50 °F

Location of HartfordLocation

Past Weather in Hartford — Graph

°F

Hartford Temperature Yesterday

Maximum temperature yesterday: 50 °F (at 2:55 pm)
Minimum temperature yesterday: 32 °F (at 4:15 am)
Average temperature yesterday: 39 °F

High & Low Weather Summary for the Past Weeks

 TemperatureHumidityPressure
High84 °F (Sep 30, 3:15 pm)100% (Oct 1, 8:15 am)30.45 "Hg (Oct 1, 8:15 am)
Low32 °F (Oct 12, 6:55 am)33% (Oct 9, 1:55 pm)29.66 "Hg (Oct 15, 2:15 pm)
Average51 °F84%30.01 "Hg
* Reported Sep 30 3:15 pm — Oct 15 3:15 pm, Hartford. Weather by CustomWeather, © 2019

Note: Actual official high and low records may vary slightly from our data, if they occured in-between our weather recording intervals... More about our weather records

Advertising

Hartford Weather History for the Previous 24 Hours

Scroll right to see more
 ConditionsComfort  
Time TempWeatherWind HumidityBarometerVisibility
3:15 pm
Tue, Oct 15
54 °FOvercast.6 mph88%29.67 "Hg7 mi
2:55 pm55 °FDrizzle. Overcast.12 mph77%29.66 "Hg10 mi
2:35 pm57 °FOvercast.8 mph67%29.66 "Hg10 mi
2:15 pm57 °FOvercast.9 mph67%29.66 "Hg10 mi
1:55 pm57 °FOvercast.9 mph67%29.68 "Hg10 mi
1:35 pm59 °FMore clouds than sun.9 mph59%29.68 "Hg10 mi
1:15 pm59 °FPartly sunny.9 mph59%29.68 "Hg10 mi
12:55 pm59 °FScattered clouds.9 mph59%29.68 "Hg10 mi
12:35 pm59 °FScattered clouds.10 mph59%29.69 "Hg10 mi
12:15 pm59 °FSunny.9 mph59%29.71 "Hg10 mi
11:55 am57 °FSunny.14 mph63%29.72 "Hg10 mi
11:35 am55 °FScattered clouds.12 mph67%29.73 "Hg10 mi
11:15 am54 °FOvercast.7 mph72%29.76 "Hg10 mi
10:55 am52 °FPartly sunny.9 mph77%29.77 "Hg10 mi
10:15 am48 °FOvercast.5 mph87%29.80 "Hg10 mi
9:55 am46 °FMostly cloudy.3 mph93%29.81 "Hg10 mi
9:35 am45 °FDrizzle. Cloudy.3 mph93%29.82 "Hg10 mi
9:15 am45 °FLight rain. More clouds than sun.9 mph93%29.82 "Hg10 mi
8:55 am45 °FLight rain. More clouds than sun.No wind93%29.86 "Hg7 mi
8:35 am45 °FLight rain. More clouds than sun.3 mph93%29.85 "Hg10 mi
8:15 am45 °FLight rain. Overcast.3 mph93%29.87 "Hg10 mi
7:55 am45 °FOvercast.5 mph93%29.87 "Hg10 mi
7:35 am43 °FOvercast.5 mph100%29.87 "Hg10 mi
7:15 am37 °FOvercast.No wind100%29.88 "Hg10 mi
6:55 am34 °FPassing clouds.No wind100%29.89 "Hg10 mi
6:35 am34 °FPassing clouds.3 mph100%29.91 "Hg10 mi
6:15 am32 °FPassing clouds.No wind100%29.92 "Hg10 mi
5:55 am32 °FClear.No wind100%29.93 "Hg10 mi
5:35 am32 °FClear.No wind100%29.93 "Hg10 mi
5:15 am32 °FClear.No wind100%29.95 "Hg10 mi
4:55 am32 °FClear.No wind100%29.96 "Hg10 mi
4:15 am32 °FClear.No wind100%29.98 "Hg10 mi
3:35 am32 °FClear.No wind100%29.98 "Hg10 mi
3:15 am32 °FClear.No wind100%29.99 "Hg10 mi
2:55 am32 °FClear.No wind100%30.00 "Hg10 mi
2:15 am32 °FClear.No wind100%30.02 "Hg10 mi
1:55 am32 °FClear.No wind100%30.03 "Hg10 mi
1:35 am32 °FClear.No wind100%30.03 "Hg10 mi
1:15 am32 °FClear.No wind100%30.03 "Hg10 mi
12:55 am32 °FIce fog.No wind100%30.03 "Hg1 mi
12:35 am32 °FClear.No wind100%30.03 "Hg10 mi
12:15 am32 °FClear.No wind100%30.04 "Hg10 mi
11:55 pm
Mon, Oct 14
32 °FClear.No wind100%30.03 "Hg10 mi
11:35 pm32 °FClear.No wind100%30.03 "Hg10 mi
11:15 pm32 °FClear.No wind100%30.03 "Hg10 mi
10:55 pm32 °FClear.No wind100%30.03 "Hg10 mi
10:35 pm34 °FClear.No wind100%30.03 "Hg10 mi
10:15 pm34 °FClear.No wind100%30.03 "Hg10 mi
9:55 pm34 °FClear.No wind100%30.03 "Hg10 mi
9:15 pm36 °FClear.No wind93%30.03 "Hg10 mi
8:55 pm36 °FClear.No wind93%30.03 "Hg10 mi
8:35 pm36 °FClear.No wind93%30.03 "Hg10 mi
8:15 pm36 °FClear.No wind100%30.03 "Hg10 mi
7:55 pm36 °FClear.No wind100%30.03 "Hg10 mi
7:35 pm37 °FClear.No wind93%30.03 "Hg10 mi
7:15 pm39 °FClear.No wind87%30.03 "Hg10 mi
6:55 pm39 °FClear.No wind87%30.03 "Hg10 mi
6:35 pm43 °FClear.No wind71%30.02 "Hg10 mi
6:15 pm45 °FClear.No wind61%30.02 "Hg10 mi
5:35 pm46 °FSunny.3 mph57%30.02 "Hg10 mi
5:15 pm46 °FSunny.3 mph57%30.02 "Hg10 mi
4:55 pm48 °FSunny.6 mph54%30.02 "Hg10 mi
4:35 pm50 °FSunny.7 mph47%30.02 "Hg10 mi
4:15 pm50 °FSunny.9 mph47%30.02 "Hg10 mi
Weather by CustomWeather, © 2019

See weather overview